Home > Weather > Erkelenz > Past weeks

Flag for Germany Past Weather in Erkelenz, North Rhine-Westphalia, Germany — Yesterday and Last 2 Weeks

Now
68 °F

Light rain. Passing clouds.


Feels Like: 68 °F
Forecast: 63 / 72 °F
Wind: 6 mph from Southwest

Location: Geilenkirchen Airport

Current Time: Jul 28, 2016 at 1:03:51 AM

Latest Report: Jul 27, 2016 at 11:50 PM


Visibility: N/A

Pressure: 30.04 "Hg

Humidity: 69%

Dew Point: 57 °F

Location of ErkelenzLocation

Past Weather in Erkelenz — Graph

°F

Erkelenz Temperature Yesterday

Maximum temperature yesterday: 73 °F (at 4:50 PM)
Minimum temperature yesterday: 59 °F (at 5:50 AM)
Average temperature yesterday: 67 °F

High & Low Weather Summary for the Past Weeks

 TemperatureHumidityPressure
High95 °F (Jul 20, 1:50 PM)100% (Jul 18, 5:50 AM)30.33 "Hg (Jul 18, 5:50 AM)
Low50 °F (Jul 14, 3:50 AM)28% (Jul 20, 2:50 PM)29.86 "Hg (Jul 20, 3:50 PM)
Average69 °F71%30.08 "Hg
* Reported Jul 12 11:50 PM — Jul 27 11:50 PM, Erkelenz, Weather by CustomWeather, © 2016

Note: Actual official high and low records may vary slightly from our data, if they occured in-between our weather recording intervals... More about our weather records

Advertising

Erkelenz Weather History for the Previous 24 Hours

Scroll right to see more
 ConditionsComfort  
Time TempWeatherWind HumidityBarometerVisibility
11:50 PM
Wed, Jul 27
68 °FLight rain. Passing clouds.6 mph69%30.04 "HgN/A
10:50 PM70 °FPassing clouds.6 mph64%30.04 "HgN/A
9:50 PM70 °FPartly sunny.8 mph64%30.04 "HgN/A
8:50 PM70 °FPartly sunny.8 mph64%30.04 "HgN/A
7:50 PM70 °FPartly sunny.14 mph64%30.01 "HgN/A
6:50 PM72 °FScattered clouds.14 mph61%30.01 "HgN/A
5:50 PM73 °FScattered clouds.13 mph57%30.04 "HgN/A
4:50 PM73 °FScattered clouds.15 mph57%30.04 "HgN/A
3:50 PM72 °FBroken clouds.13 mph61%30.04 "HgN/A
2:50 PM72 °FPartly sunny.16 mph61%30.04 "HgN/A
1:50 PM72 °FScattered clouds.13 mph57%30.07 "HgN/A
12:50 PM72 °FScattered clouds.13 mph57%30.07 "HgN/A
11:50 AM68 °FScattered clouds.10 mph64%30.07 "HgN/A
10:50 AM66 °FScattered clouds.14 mph68%30.07 "HgN/A
9:50 AM64 °FScattered clouds.15 mph68%30.07 "HgN/A
8:50 AM63 °FScattered clouds.12 mph77%30.07 "HgN/A
7:50 AM61 °FSunny.9 mph83%30.07 "Hg10 mi
6:50 AM59 °FClear.7 mph88%30.07 "Hg10 mi
5:50 AM59 °FPassing clouds.6 mph94%30.07 "Hg5 mi
4:50 AM61 °FClear.7 mph88%30.07 "Hg10 mi
3:50 AM61 °FClear.2 mph88%30.09 "Hg10 mi
2:50 AM64 °FPassing clouds.6 mph83%30.09 "HgN/A
1:50 AM64 °FPassing clouds.6 mph83%30.09 "HgN/A
Weather by CustomWeather, © 2016

See weather overviewHow to use our weather pages